Home > Time Zones > World Clock > Weather > Mali > Bamako > Past weeks

Flag for Mali Weather past 2 weeks in Bamako, Mali

Now
73 °F

Passing clouds.


Feels Like: 68 °F
Forecast: 74 / 88 °F
Wind: 5 mph from Southwest

Location: Bamako / Senou

Current Time: Sep 1, 2015 at 6:08:46 AM

Latest Report: Sep 1, 2015 at 5:30 AM


Visibility: 4 mi

Pressure: 30.01 "Hg

Humidity: 100%

Dew point: 73 °F

Location of BamakoLocation

Historic Weather in Bamako — Graph

°F

Bamako temperature yesterday

Maximum temperature yesterday: 77 °F (at 1:00 PM)
Minimum temperature yesterday: 72 °F (at 2:00 PM)
Average temperature yesterday: 74 °F

Past Weeks' High & Low Weather Summary

 TemperatureHumidityPressure
High95 °F (Aug 24, 3:00 PM)100% (Aug 17, 5:00 AM)30.07 "Hg (Aug 17, 5:00 AM)
Low68 °F (Aug 25, 5:30 AM)47% (Aug 24, 3:00 PM)29.83 "Hg (Aug 19, 4:30 PM)
Average78 °F89%29.96 "Hg
* Reported Aug 17 5:00 AM — Sep 1 5:00 AM, Bamako, Weather by CustomWeather, © 2015

Note: Actual official high and low records may vary slightly from our data, if they occured in-between our weather recording intervals... More about our weather records

Advertising

Bamako weather history for previous 24 hours

 ConditionsComfort  
Time TempWeatherWind HumidityBarometerVisibility
5:00 AM
Tue, Sep 1
73 °FPassing clouds.3 mph100%30.01 "Hg4 mi
4:30 AM73 °FPassing clouds.3 mph100%30.01 "Hg4 mi
3:30 AM73 °FPassing clouds.No wind100%30.01 "Hg4 mi
3:00 AM73 °FPassing clouds.1 mph100%30.01 "Hg4 mi
2:30 AM73 °FPassing clouds.2 mph100%30.01 "Hg4 mi
2:00 AM73 °FFog.5 mph100%30.01 "Hg2 mi
1:30 AM73 °FFog.3 mph100%30.01 "Hg1 mi
1:00 AM72 °FPassing clouds.3 mph100%30.01 "Hg4 mi
12:30 AM72 °FPassing clouds.5 mph100%30.01 "Hg5 mi
12:00 AM72 °FPassing clouds.No wind100%30.01 "HgN/A
11:30 PM
Mon, Aug 31
73 °FPassing clouds.No wind100%30.04 "HgN/A
11:00 PM73 °FPassing clouds.No wind100%30.04 "HgN/A
10:30 PM73 °FPassing clouds.1 mph100%30.04 "HgN/A
9:30 PM73 °FPassing clouds.3 mph100%30.04 "HgN/A
8:30 PM75 °FPassing clouds.3 mph100%30.01 "HgN/A
8:00 PM75 °FPassing clouds.1 mph100%30.01 "HgN/A
7:30 PM75 °FPassing clouds.2 mph100%30.01 "HgN/A
7:00 PM75 °FPassing clouds.No wind100%30.01 "HgN/A
6:30 PM75 °FScattered clouds.No wind100%29.98 "HgN/A
6:00 PM75 °FScattered clouds.3 mph100%29.98 "HgN/A
5:30 PM75 °FScattered clouds.No wind100%29.98 "HgN/A
5:00 PM75 °FScattered clouds.No wind100%29.98 "HgN/A
4:30 PM75 °FScattered clouds.No wind100%29.98 "HgN/A
4:00 PM73 °FThunderstorms. Scattered clouds.2 mph100%29.98 "Hg5 mi
3:30 PM73 °FThunderstorms. Scattered clouds.3 mph100%29.98 "Hg4 mi
3:00 PM72 °FThunderstorms. Partly sunny.2 mph100%30.01 "Hg4 mi
2:30 PM72 °FThunderstorms. Partly sunny.5 mph100%30.01 "Hg2 mi
2:00 PM72 °FHeavy rain. Partly sunny.7 mph100%30.04 "Hg1 mi
1:30 PM77 °FPartly sunny.3 mph89%30.04 "HgN/A
1:00 PM77 °FPartly sunny.7 mph94%30.04 "HgN/A
12:30 PM75 °FPartly sunny.8 mph100%30.07 "HgN/A
12:00 PM75 °FPartly sunny.8 mph100%30.07 "HgN/A
11:30 AM75 °FLight rain. Scattered clouds.5 mph100%30.07 "Hg4 mi
11:00 AM75 °FLight rain. Scattered clouds.2 mph100%30.07 "Hg5 mi
10:30 AM73 °FRain. Scattered clouds.1 mph100%30.07 "Hg1 mi
9:30 AM75 °FPassing clouds.5 mph94%30.07 "HgN/A
9:00 AM75 °FLight rain. Passing clouds.2 mph100%30.04 "HgN/A
8:30 AM75 °FScattered clouds.2 mph100%30.04 "HgN/A
8:00 AM73 °FLight rain. Passing clouds.1 mph100%30.01 "HgN/A
7:30 AM73 °FPassing clouds.No wind100%30.01 "HgN/A
7:00 AM73 °FPassing clouds.1 mph100%30.01 "HgN/A
6:30 AM73 °FPartly sunny.No wind100%30.01 "HgN/A
6:00 AM73 °FThunderstorms. Passing clouds.2 mph100%30.01 "HgN/A
Weather by CustomWeather, © 2015

See weather overviewHow to use our weather pages